Content
SEND FEEDBACK

Daily
Averages
Monthly
Summary
United States of America

LAKE GEORGE, NEW YORK


Home > North America > United States > New York
Elevation: 321 feet     Latitude: 43 21N     Longitude: 073 37W

WEATHER
 
SELECT A DAY
Number of Records: 212,733;   Date Range: 1/1/95 - 7/7/14
 
SHARE

PRINT THIS DATA

[ ← Previous Day ]
WEATHER ALMANAC - FEBRUARY 4, 2013
[ Next Day → ]
[ °C ]   °F
Weather ElementAverageHighLow
Temperature19 °F26.1 °F (2:53 pm)12.9 °F (11:53 pm)
Dewpoint4 °F12.9 °F (1:53 am)-0.9 °F (1:53 pm)
Humidity54.6 %81 % (1:53 am)34 % (12:53 pm)
Barometer29.87 in29.97 in (11:53 pm)29.78 in (2:53 am)
Wind Speed8.1 mph20.7 mph (12:53 pm)
Wind Gust31.1 mph (12:53 pm)
Weather ElementAverage
Visibility10 mi
Wind DirectionWSW (235 °)

Weather ElementTotal
Precipitation---
Heating Degree Days45.5 (Base 65)
Averaged from 22 records on February 4, 2013
WEATHER CONDITIONS BREAKOUT
WIND DIRECTION BREAKOUT
WEATHER BY HOUR - FEBRUARY 4, 2013
[ °C ]   °F
Local TimeTemperatureDewpointHumidityBarometerVisibilityWind DirectionWind SpeedGust SpeedPrecipitationEventsConditions
1:53 AM18.0 °F12.9 °F81 %29.79 in10.0 miCalmMostly Cloudy
2:53 AM16.0 °F10.9 °F81 %29.78 in10.0 miSW (230°)3.5 mphScattered Clouds
3:53 AM18.0 °F10.9 °F74 %29.79 in10.0 miWSW (240°)4.6 mphClear
5:53 AM15.1 °F7.0 °F70 %29.83 in10.0 miWSW (250°)4.6 mphClear
6:53 AM14.0 °F8.1 °F77 %29.86 in10.0 miSW (230°)4.6 mphClear
7:53 AM14.0 °F8.1 °F77 %29.87 in10.0 miSW (230°)5.8 mphScattered Clouds
8:53 AM19.0 °F10.0 °F68 %29.87 in10.0 miSW (230°)4.6 mphOvercast
9:53 AM21.0 °F10.0 °F63 %29.85 in10.0 miSSW (210°)8.1 mph17.3 mphPartly Cloudy
10:53 AM24.1 °F1.9 °F38 %29.84 in10.0 miWest (270°)17.3 mph27.6 mphMostly Cloudy
11:53 AM25.0 °F1.0 °F36 %29.83 in10.0 miWest (260°)10.4 mph24.2 mphMostly Cloudy
12:53 PM25.0 °F0.0 °F34 %29.83 in10.0 miWest (260°)20.7 mph31.1 mphMostly Cloudy
1:53 PM23.0 °F-0.9 °F35 %29.84 in10.0 miWest (270°)17.3 mph24.2 mphMostly Cloudy
2:53 PM26.1 °F1.0 °F34 %29.86 in10.0 miWNW (290°)11.5 mph25.3 mphOvercast
3:53 PM23.0 °F-0.9 °F35 %29.87 in10.0 miWest (260°)9.2 mph24.2 mphMostly Cloudy
4:53 PM21.0 °F-0.9 °F38 %29.88 in10.0 miWest (270°)9.2 mph16.1 mphPartly Cloudy
5:53 PM19.0 °F0.0 °F43 %29.91 in10.0 miWest (260°)6.9 mphMostly Cloudy
6:53 PM18.0 °F0.0 °F45 %29.93 in10.0 miWNW (290°)10.4 mphClear
7:53 PM17.1 °F0.0 °F47 %29.95 in10.0 miWest (260°)6.9 mphClear
8:53 PM16.0 °F1.0 °F52 %29.96 in10.0 miWSW (240°)4.6 mphMostly Cloudy
9:53 PM17.1 °F1.9 °F52 %29.96 in10.0 miSSW (200°)6.9 mphOvercast
10:53 PM16.0 °F1.9 °F54 %29.96 in10.0 miSW (220°)5.8 mphOvercast
11:53 PM12.9 °F3.9 °F67 %29.97 in10.0 miSSW (200°)4.6 mphMostly Cloudy
Hourly data recorded from KGFL, located miles away from Lake George, New York







STORIES FROM OUR PARTNERS